• In Hungary
  • List of Countries
  • For 7 days
  • Water Temperature
  • Satellite Maps
  • Weather Map
  • News
  • Weather Widgets
  • user-avatar
    Login

    Hourly Weather Sun Prairie

    Today, 20 January, Saturday

    Time Temperature Precipitation Wind Pressure Humidity
    00:00 -2°C° 0 mm 5 mps 728 mmHg 86%
    01:00 -3°C° 0 mm 4 mps 728 mmHg 88%
    02:00 -3°C° 0 mm 4 mps 728 mmHg 90%
    03:00 -4°C° 0 mm 3 mps 728 mmHg 91%
    04:00 -4°C° 0 mm 3 mps 729 mmHg 92%
    05:00 -5°C° 0 mm 3 mps 729 mmHg 93%
    06:00 -5°C° 0 mm 3 mps 730 mmHg 93%
    07:00 -4°C° 0 mm 2 mps 730 mmHg 92%
    08:00 -3°C° 0 mm 2 mps 731 mmHg 91%
    09:00 -3°C° 0 mm 2 mps 731 mmHg 90%
    10:00 -2°C° 0 mm 2 mps 732 mmHg 87%
    11:00 +1°C° 0 mm 2 mps 732 mmHg 85%
    12:00 +2°C° 0 mm 2 mps 732 mmHg 82%
    13:00 +2°C° 0 mm 2 mps 732 mmHg 83%
    14:00 +3°C° 0 mm 1 mps 732 mmHg 83%
    15:00 +3°C° 0 mm 1 mps 733 mmHg 84%
    16:00 +2°C° 0 mm 1 mps 733 mmHg 86%
    17:00 +1°C° 0 mm 1 mps 733 mmHg 88%
    18:00 0°C° 0 mm 1 mps 733 mmHg 91%
    19:00 0°C° 0 mm 1 mps 734 mmHg 91%
    20:00 -2°C° 0 mm 2 mps 734 mmHg 91%
    21:00 -2°C° 0 mm 2 mps 734 mmHg 92%
    22:00 -2°C° 0 mm 2 mps 734 mmHg 92%
    23:00 -3°C° 0 mm 2 mps 734 mmHg 92%

    Tomorrow, 21 January, Sunday

    Time Temperature Precipitation Wind Pressure Humidity
    00:00 -1°C° 0 mm 1 mps 734 mmHg 92%
    01:00 -1°C° 0 mm 1 mps 734 mmHg 92%
    02:00 -1°C° 0 mm 1 mps 734 mmHg 92%
    03:00 -1°C° 0 mm 1 mps 734 mmHg 93%
    04:00 -1°C° 0 mm 1 mps 734 mmHg 93%
    05:00 -2°C° 0 mm 0 mps 734 mmHg 93%
    06:00 -2°C° 0 mm 0 mps 734 mmHg 93%
    07:00 -2°C° 0 mm 0 mps 734 mmHg 93%
    08:00 0°C° 0 mm 1 mps 734 mmHg 93%
    09:00 0°C° 0 mm 1 mps 735 mmHg 93%
    10:00 +1°C° 0 mm 1 mps 734 mmHg 93%
    11:00 +1°C° 0 mm 1 mps 734 mmHg 92%
    12:00 +2°C° 0 mm 1 mps 734 mmHg 91%
    13:00 +2°C° 0.1 mm 1 mps 734 mmHg 93%
    14:00 +1°C° 0.1 mm 2 mps 733 mmHg 94%
    15:00 +1°C° 0.1 mm 2 mps 733 mmHg 95%
    16:00 +1°C° 0.1 mm 2 mps 733 mmHg 95%
    17:00 0°C° 0.1 mm 3 mps 733 mmHg 96%
    18:00 0°C° 0.1 mm 3 mps 734 mmHg 96%
    19:00 -1°C° 0.2 mm 4 mps 734 mmHg 96%
    20:00 -1°C° 0.2 mm 4 mps 733 mmHg 96%
    21:00 -1°C° 0.2 mm 4 mps 733 mmHg 95%
    22:00 -1°C° 0.1 mm 5 mps 733 mmHg 96%
    23:00 -1°C° 0.1 mm 5 mps 732 mmHg 96%

    Day after tomorrow, 22 January, Monday

    Time Temperature Precipitation Wind Pressure Humidity
    00:00 -1°C° 0.1 mm 5 mps 732 mmHg 96%
    01:00 -2°C° 0.6 mm 6 mps 731 mmHg 95%
    02:00 -1°C° 0.6 mm 6 mps 730 mmHg 95%
    03:00 -1°C° 0.6 mm 7 mps 730 mmHg 95%
    04:00 -1°C° 1.7 mm 7 mps 729 mmHg 95%
    05:00 -1°C° 1.7 mm 7 mps 728 mmHg 95%
    06:00 -1°C° 1.7 mm 7 mps 727 mmHg 95%
    07:00 0°C° 1.6 mm 7 mps 726 mmHg 95%
    08:00 0°C° 1.6 mm 7 mps 726 mmHg 95%
    09:00 0°C° 1.6 mm 7 mps 725 mmHg 95%
    10:00 +2°C° 0.5 mm 6 mps 724 mmHg 96%
    11:00 +2°C° 0.5 mm 5 mps 723 mmHg 96%
    12:00 +3°C° 0.5 mm 4 mps 722 mmHg 97%
    13:00 +3°C° 0.1 mm 4 mps 722 mmHg 97%
    14:00 +4°C° 0.1 mm 3 mps 721 mmHg 97%
    15:00 +4°C° 0.1 mm 3 mps 721 mmHg 97%
    16:00 +4°C° 0.4 mm 3 mps 721 mmHg 96%
    17:00 +3°C° 0.4 mm 3 mps 721 mmHg 95%
    18:00 +2°C° 0.4 mm 3 mps 720 mmHg 94%
    19:00 +2°C° 0.5 mm 3 mps 720 mmHg 94%
    20:00 +1°C° 0.5 mm 3 mps 720 mmHg 94%
    21:00 +1°C° 0.5 mm 2 mps 720 mmHg 95%
    22:00 0°C° 0.3 mm 3 mps 720 mmHg 95%
    23:00 0°C° 0.3 mm 3 mps 720 mmHg 95%

    23 January, Tuesday

    Time Temperature Precipitation Wind Pressure Humidity
    00:00 0°C° 0.3 mm 3 mps 720 mmHg 95%
    01:00 -2°C° 0.4 mm 5 mps 720 mmHg 93%
    02:00 -3°C° 0.4 mm 6 mps 721 mmHg 92%
    03:00 -4°C° 0.4 mm 7 mps 722 mmHg 90%
    04:00 -4°C° 0.2 mm 7 mps 723 mmHg 89%
    05:00 -5°C° 0.2 mm 8 mps 724 mmHg 87%
    06:00 -6°C° 0.2 mm 8 mps 725 mmHg 85%
    07:00 -6°C° 0.1 mm 8 mps 726 mmHg 84%
    08:00 -7°C° 0.1 mm 8 mps 727 mmHg 83%
    09:00 -8°C° 0.1 mm 8 mps 729 mmHg 82%
    10:00 -8°C° 0 mm 8 mps 729 mmHg 81%
    11:00 -8°C° 0 mm 8 mps 730 mmHg 80%
    12:00 -8°C° 0 mm 7 mps 731 mmHg 79%
    13:00 -8°C° 0 mm 7 mps 732 mmHg 79%
    14:00 -8°C° 0 mm 7 mps 732 mmHg 79%
    15:00 -8°C° 0 mm 7 mps 733 mmHg 79%
    16:00 -8°C° 0 mm 6 mps 734 mmHg 79%
    17:00 -9°C° 0 mm 6 mps 734 mmHg 79%
    18:00 -9°C° 0 mm 6 mps 735 mmHg 80%
    19:00 -9°C° 0 mm 6 mps 736 mmHg 80%
    20:00 -10°C° 0 mm 5 mps 736 mmHg 80%
    21:00 -10°C° 0 mm 5 mps 737 mmHg 80%
    22:00 -10°C° 0 mm 5 mps 737 mmHg 80%
    23:00 -10°C° 0 mm 5 mps 738 mmHg 81%

    24 January, Wednesday

    Time Temperature Precipitation Wind Pressure Humidity
    00:00 -10°C° 0 mm 5 mps 738 mmHg 81%
    01:00 -10°C° 0 mm 4 mps 739 mmHg 82%
    02:00 -10°C° 0 mm 4 mps 739 mmHg 82%
    03:00 -11°C° 0 mm 4 mps 740 mmHg 83%
    04:00 -11°C° 0 mm 4 mps 740 mmHg 84%
    05:00 -11°C° 0 mm 4 mps 741 mmHg 84%
    06:00 -12°C° 0 mm 3 mps 741 mmHg 85%
    07:00 -12°C° 0 mm 3 mps 742 mmHg 83%
    08:00 -12°C° 0 mm 3 mps 742 mmHg 81%
    09:00 -12°C° 0 mm 3 mps 743 mmHg 80%
    10:00 -10°C° 0 mm 3 mps 743 mmHg 74%
    11:00 -9°C° 0 mm 3 mps 743 mmHg 68%
    12:00 -7°C° 0 mm 2 mps 743 mmHg 62%
    13:00 -7°C° 0 mm 2 mps 743 mmHg 62%
    14:00 -6°C° 0 mm 2 mps 743 mmHg 62%
    15:00 -6°C° 0 mm 2 mps 743 mmHg 62%
    16:00 -7°C° 0 mm 2 mps 743 mmHg 67%
    17:00 -6°C° 0 mm 1 mps 743 mmHg 72%
    18:00 -7°C° 0 mm 1 mps 744 mmHg 77%
    19:00 -7°C° 0 mm 1 mps 744 mmHg 79%
    20:00 -7°C° 0 mm 1 mps 744 mmHg 80%
    21:00 -8°C° 0 mm 1 mps 744 mmHg 82%
    22:00 -8°C° 0 mm 0 mps 744 mmHg 82%
    23:00 -8°C° 0 mm 0 mps 745 mmHg 83%

    25 January, Thursday

    Time Temperature Precipitation Wind Pressure Humidity
    00:00 -8°C° 0 mm 0 mps 745 mmHg 84%
    01:00 -8°C° 0 mm 0 mps 745 mmHg 84%
    02:00 -8°C° 0 mm 0 mps 745 mmHg 84%
    03:00 -8°C° 0 mm 0 mps 745 mmHg 84%
    04:00 -8°C° 0 mm 1 mps 745 mmHg 85%
    05:00 -9°C° 0 mm 1 mps 745 mmHg 85%
    06:00 -9°C° 0 mm 1 mps 745 mmHg 85%
    07:00 -8°C° 0 mm 1 mps 745 mmHg 84%
    08:00 -8°C° 0 mm 2 mps 745 mmHg 82%
    09:00 -8°C° 0 mm 2 mps 746 mmHg 80%
    10:00 -6°C° 0 mm 2 mps 745 mmHg 77%
    11:00 -6°C° 0 mm 3 mps 745 mmHg 75%
    12:00 -5°C° 0 mm 3 mps 745 mmHg 72%
    13:00 -4°C° 0 mm 4 mps 744 mmHg 71%
    14:00 -3°C° 0 mm 4 mps 744 mmHg 70%
    15:00 -2°C° 0 mm 4 mps 743 mmHg 69%
    16:00 -4°C° 0 mm 5 mps 743 mmHg 71%
    17:00 -4°C° 0 mm 5 mps 743 mmHg 73%
    18:00 -4°C° 0 mm 5 mps 742 mmHg 75%
    19:00 -4°C° 0 mm 5 mps 742 mmHg 76%
    20:00 -3°C° 0 mm 6 mps 742 mmHg 77%
    21:00 -3°C° 0 mm 6 mps 741 mmHg 78%
    22:00 -3°C° 0 mm 6 mps 741 mmHg 81%
    23:00 -3°C° 0 mm 6 mps 741 mmHg 83%
    Show more